Вернуться в каталог

COSMOS 374 DEB

АктивенLEO
NORAD 4711·DEBRIS·🇷🇺 Russia

Запущен Oct 23, 1970 с Baikonur Cosmodrome

Loading…

Ближайшие Пролёты (ближайшие 24 часа)

TLE

СвежийSource: Space-Track

Эпоха: Sep 14, 2026, 05:11 UTC

1 04711U 70089S   26257.21610135  .00000805  00000-0  22770-3 0  9992
2 04711  63.1161 337.6039 0815295  83.6788 285.6356 13.38856268666692

Отслеживайте COSMOS 374 DEB в реальном времени с AllMySat

Download on the App Store